• In Hungary
  • List of Countries
  • For 7 days
  • Water Temperature
  • Satellite Maps
  • Weather Map
  • News
  • Weather Widgets
  • user-avatar
    Login

    Hourly Weather Krystynka

    Today, 22 September, Saturday

    Time Temperature Precipitation Wind Pressure Humidity
    00:00 +13°C° 0.2 mm 6 mps 749 mmHg 77%
    01:00 +13°C° 0 mm 4 mps 750 mmHg 76%
    02:00 +12°C° 0 mm 4 mps 751 mmHg 75%
    03:00 +12°C° 0 mm 5 mps 751 mmHg 74%
    04:00 +10°C° 0 mm 5 mps 751 mmHg 73%
    05:00 +10°C° 0 mm 5 mps 752 mmHg 72%
    06:00 +10°C° 0 mm 6 mps 752 mmHg 71%
    07:00 +10°C° 0 mm 6 mps 753 mmHg 70%
    08:00 +11°C° 0 mm 6 mps 753 mmHg 68%
    09:00 +13°C° 0 mm 6 mps 753 mmHg 65%
    10:00 +13°C° 0 mm 6 mps 753 mmHg 62%
    11:00 +14°C° 0 mm 6 mps 753 mmHg 60%
    12:00 +15°C° 0 mm 6 mps 753 mmHg 57%
    13:00 +16°C° 0 mm 6 mps 753 mmHg 55%
    14:00 +16°C° 0.1 mm 6 mps 753 mmHg 54%
    15:00 +16°C° 0.1 mm 6 mps 753 mmHg 53%
    16:00 +16°C° 0.1 mm 6 mps 753 mmHg 53%
    17:00 +15°C° 0.2 mm 5 mps 753 mmHg 58%
    18:00 +14°C° 0.2 mm 4 mps 753 mmHg 63%
    19:00 +13°C° 0.2 mm 3 mps 753 mmHg 68%
    20:00 +12°C° 0.1 mm 3 mps 753 mmHg 69%
    21:00 +12°C° 0.1 mm 3 mps 753 mmHg 71%
    22:00 +11°C° 0.1 mm 4 mps 753 mmHg 72%
    23:00 +11°C° 0 mm 4 mps 753 mmHg 73%

    Tomorrow, 23 September, Sunday

    Time Temperature Precipitation Wind Pressure Humidity
    00:00 +11°C° 0 mm 4 mps 753 mmHg 74%
    01:00 +11°C° 0 mm 4 mps 753 mmHg 76%
    02:00 +11°C° 0 mm 4 mps 753 mmHg 78%
    03:00 +10°C° 0 mm 4 mps 752 mmHg 81%
    04:00 +10°C° 0 mm 4 mps 752 mmHg 84%
    05:00 +10°C° 0 mm 4 mps 752 mmHg 84%
    06:00 +10°C° 0 mm 4 mps 752 mmHg 85%
    07:00 +10°C° 0 mm 4 mps 752 mmHg 86%
    08:00 +11°C° 0 mm 4 mps 752 mmHg 78%
    09:00 +13°C° 0 mm 4 mps 752 mmHg 70%
    10:00 +14°C° 0 mm 4 mps 752 mmHg 62%
    11:00 +14°C° 0.1 mm 4 mps 752 mmHg 59%
    12:00 +15°C° 0.1 mm 4 mps 752 mmHg 56%
    13:00 +15°C° 0.1 mm 4 mps 751 mmHg 53%
    14:00 +16°C° 0.1 mm 3 mps 751 mmHg 57%
    15:00 +14°C° 0.1 mm 3 mps 750 mmHg 60%
    16:00 +15°C° 0.1 mm 2 mps 749 mmHg 63%
    17:00 +14°C° 1 mm 2 mps 749 mmHg 71%
    18:00 +13°C° 1 mm 2 mps 748 mmHg 78%
    19:00 +12°C° 1 mm 1 mps 747 mmHg 85%
    20:00 +12°C° 1.1 mm 2 mps 746 mmHg 86%
    21:00 +10°C° 1.1 mm 2 mps 746 mmHg 87%
    22:00 +10°C° 1.1 mm 3 mps 745 mmHg 88%
    23:00 +10°C° 0.9 mm 4 mps 745 mmHg 86%

    Day after tomorrow, 24 September, Monday

    Time Temperature Precipitation Wind Pressure Humidity
    00:00 +10°C° 0.9 mm 4 mps 746 mmHg 85%
    01:00 +9°C° 0.9 mm 5 mps 746 mmHg 84%
    02:00 +9°C° 0.4 mm 5 mps 747 mmHg 83%
    03:00 +9°C° 0.4 mm 6 mps 748 mmHg 83%
    04:00 +9°C° 0.4 mm 6 mps 749 mmHg 82%
    05:00 +9°C° 0.2 mm 6 mps 750 mmHg 80%
    06:00 +9°C° 0.2 mm 7 mps 751 mmHg 78%
    07:00 +8°C° 0.2 mm 7 mps 751 mmHg 76%
    08:00 +9°C° 0.1 mm 8 mps 752 mmHg 70%
    09:00 +10°C° 0.1 mm 9 mps 753 mmHg 63%
    10:00 +11°C° 0.1 mm 10 mps 753 mmHg 57%
    11:00 +11°C° 0.3 mm 10 mps 754 mmHg 58%
    12:00 +11°C° 0.3 mm 10 mps 755 mmHg 58%
    13:00 +11°C° 0.3 mm 10 mps 755 mmHg 59%
    14:00 +11°C° 0.2 mm 9 mps 756 mmHg 59%
    15:00 +10°C° 0.2 mm 8 mps 757 mmHg 58%
    16:00 +10°C° 0.2 mm 7 mps 757 mmHg 58%
    17:00 +9°C° 0 mm 6 mps 758 mmHg 62%
    18:00 +8°C° 0 mm 5 mps 759 mmHg 65%
    19:00 +8°C° 0 mm 4 mps 759 mmHg 68%
    20:00 +7°C° 0 mm 4 mps 760 mmHg 69%
    21:00 +7°C° 0 mm 4 mps 760 mmHg 70%
    22:00 +7°C° 0 mm 4 mps 761 mmHg 72%
    23:00 +6°C° 0 mm 4 mps 761 mmHg 73%

    25 September, Tuesday

    Time Temperature Precipitation Wind Pressure Humidity
    00:00 +6°C° 0 mm 4 mps 762 mmHg 74%
    01:00 +6°C° 0 mm 4 mps 763 mmHg 74%
    02:00 +7°C° 0 mm 3 mps 763 mmHg 76%
    03:00 +5°C° 0 mm 3 mps 764 mmHg 77%
    04:00 +5°C° 0 mm 3 mps 764 mmHg 78%
    05:00 +5°C° 0 mm 3 mps 765 mmHg 76%
    06:00 +5°C° 0 mm 3 mps 765 mmHg 75%
    07:00 +7°C° 0 mm 3 mps 766 mmHg 73%
    08:00 +8°C° 0 mm 4 mps 766 mmHg 63%
    09:00 +10°C° 0 mm 4 mps 767 mmHg 53%
    10:00 +12°C° 0 mm 5 mps 768 mmHg 43%
    11:00 +13°C° 0 mm 5 mps 768 mmHg 41%
    12:00 +13°C° 0 mm 5 mps 768 mmHg 39%
    13:00 +14°C° 0 mm 5 mps 768 mmHg 38%
    14:00 +14°C° 0 mm 5 mps 768 mmHg 40%
    15:00 +13°C° 0 mm 4 mps 768 mmHg 42%
    16:00 +13°C° 0 mm 4 mps 767 mmHg 44%
    17:00 +12°C° 0 mm 4 mps 768 mmHg 49%
    18:00 +10°C° 0 mm 3 mps 768 mmHg 55%
    19:00 +9°C° 0 mm 2 mps 768 mmHg 60%
    20:00 +9°C° 0 mm 2 mps 768 mmHg 62%
    21:00 +8°C° 0 mm 2 mps 768 mmHg 64%
    22:00 +8°C° 0 mm 3 mps 768 mmHg 65%
    23:00 +7°C° 0 mm 3 mps 768 mmHg 67%

    26 September, Wednesday

    Time Temperature Precipitation Wind Pressure Humidity
    00:00 +7°C° 0 mm 3 mps 768 mmHg 68%
    01:00 +7°C° 0 mm 3 mps 768 mmHg 70%
    02:00 +7°C° 0 mm 3 mps 767 mmHg 70%
    03:00 +7°C° 0 mm 3 mps 767 mmHg 71%
    04:00 +7°C° 0 mm 3 mps 767 mmHg 71%
    05:00 +6°C° 0 mm 4 mps 766 mmHg 69%
    06:00 +6°C° 0 mm 4 mps 766 mmHg 68%
    07:00 +6°C° 0 mm 4 mps 766 mmHg 67%
    08:00 +8°C° 0 mm 5 mps 765 mmHg 61%
    09:00 +9°C° 0 mm 5 mps 765 mmHg 56%
    10:00 +11°C° 0 mm 6 mps 765 mmHg 50%
    11:00 +11°C° 0 mm 6 mps 764 mmHg 48%
    12:00 +13°C° 0 mm 6 mps 764 mmHg 45%
    13:00 +14°C° 0 mm 7 mps 763 mmHg 43%
    14:00 +14°C° 0 mm 6 mps 762 mmHg 43%
    15:00 +14°C° 0 mm 6 mps 761 mmHg 43%
    16:00 +15°C° 0 mm 6 mps 761 mmHg 42%
    17:00 +14°C° 0 mm 6 mps 760 mmHg 44%
    18:00 +13°C° 0 mm 5 mps 760 mmHg 46%
    19:00 +12°C° 0 mm 5 mps 760 mmHg 48%
    20:00 +12°C° 0 mm 5 mps 760 mmHg 49%
    21:00 +12°C° 0 mm 5 mps 760 mmHg 50%
    22:00 +12°C° 0 mm 5 mps 760 mmHg 52%
    23:00 +12°C° 0 mm 5 mps 759 mmHg 52%

    27 September, Thursday

    Time Temperature Precipitation Wind Pressure Humidity
    00:00 +10°C° 0 mm 5 mps 759 mmHg 53%
    01:00 +10°C° 0 mm 5 mps 759 mmHg 54%
    02:00 +10°C° 0 mm 6 mps 758 mmHg 56%
    03:00 +10°C° 0 mm 6 mps 758 mmHg 57%
    04:00 +10°C° 0 mm 6 mps 757 mmHg 59%
    05:00 +10°C° 0 mm 6 mps 757 mmHg 61%
    06:00 +10°C° 0 mm 6 mps 757 mmHg 63%
    07:00 +10°C° 0 mm 6 mps 756 mmHg 65%
    08:00 +11°C° 0.1 mm 6 mps 756 mmHg 65%
    09:00 +11°C° 0.1 mm 6 mps 756 mmHg 66%
    10:00 +11°C° 0.1 mm 6 mps 755 mmHg 67%
    11:00 +13°C° 0.3 mm 6 mps 755 mmHg 66%
    12:00 +14°C° 0.3 mm 7 mps 754 mmHg 64%
    13:00 +15°C° 0.3 mm 7 mps 754 mmHg 63%
    14:00 +16°C° 0.1 mm 7 mps 753 mmHg 61%
    15:00 +17°C° 0 mm 7 mps 752 mmHg 59%
    16:00 +17°C° 0 mm 7 mps 752 mmHg 57%
    17:00 +17°C° 0 mm 7 mps 752 mmHg 59%
    18:00 +16°C° 0 mm 7 mps 751 mmHg 61%
    19:00 +16°C° 0 mm 7 mps 751 mmHg 63%
    20:00 +15°C° 0.2 mm 7 mps 752 mmHg 69%
    21:00 +14°C° 0.2 mm 7 mps 752 mmHg 74%
    22:00 +12°C° 0.2 mm 7 mps 752 mmHg 79%
    23:00 +11°C° 0.1 mm 6 mps 753 mmHg 80%
    Show more